Location: Moutoa
(40.5000°S, 175.3833°E)
Time: 14:53:05
(UTC+00:00)

Cosmos 1943 Rocket - Pass Details

Date: 11 December 2025
Orbit: 809 x 844 km, 71.0° (Epoch: 22 April)

Event Time Altitude Azimuth Distance (km) Brightness Sun altitude
Exits shadow 14:13:22 18° 272° (W) 1,937 3.8 -20.5°
Maximum altitude 14:15:59 25° 234° (SW) 1,638 3.7 -20.2°
Drops below altitude 10° 14:20:39 10° 179° (S) 2,486 5.5 -19.7°
Sets 14:23:35 0° 166° (SSE) 3,432 6.7 -19.5°
